Location: Dammartin
(48.9032°N, 1.6195°E)
Time: 14:03:55
(UTC+00:00)

YUBILEINY - Pass Details

Date: 06 December 2023
Orbit: 1479 x 1508 km, 82.5° (Epoch: 02 March)

Event Time Altitude Azimuth Distance (km) Brightness Sun altitude
Rises 18:39:06 0° 351° (N) 4,633 ? -25.6°
Reaches altitude 10° 18:42:24 10° 0° (N) 3,645 ? -26.1°
Enters shadow 18:47:47 30° 34° (NE) 2,406 ? -27.0°
